Torna al catalogo

STARLINK-2486

AttivoComunicazioniVLEO
NORAD 48143·PAYLOAD·🇺🇸 United States

Lanciato Apr 7, 2021 da Cape Canaveral Space Force Station

Loading…

Prossimi Passaggi (prossime 24 ore)

TLE

AggiornatoSource: CelesTrak SupGP

Epoca: Sep 14, 2026, 21:28 UTC

1 48143C 21027BD  26257.89493056  .00060530  00000+0  11314-2 0  2570
2 48143  53.1519 290.3500 0004870  29.6815 346.0664 15.48100817    10

Traccia STARLINK-2486 in tempo reale con AllMySat

Download on the App Store